U.S. Alerts
El Dorado Weather Logo
U.S. Radar Loop Conditions Map

U.S. Color Satellite North America Color Infrared Animated Satellite Loop

Interactive Wx Map Live U.S. Google Map Radar Thumbnail Image

US Precipitation 1 day, 24 hour precipitation map

US Temperatures US Conditions Map

US Climate Data US Conditions Map


NOAA NWS Hourly Roundups by Site
Regional Weather Roundup for Sacramento, CA
Select Site:  

401
ASUS46 KSTO 251615
RWRCA

NORTHERN AND CENTRAL CA REGIONAL WEATHER ROUNDUP
NATIONAL WEATHER SERVICE SACRAMENTO CA
900 AM PDT SAT MAY 25 2024

NOTE: FAIR INDICATES FEW OR NO CLOUDS BELOW 12,000 FEET WITH NO
SIGNIFICANT WEATHER AND/OR OBSTRUCTIONS TO VISIBILITY.

CAZ001-003-251700-
NORTHWEST AREA

CITY           SKY/WX    TMP DP  RH WIND       PRES   REMARKS
CRESCENT CITY  CLOUDY    52  48  86 N8        30.02R
UKIAH          MOSUNNY   59  47  64 CALM      29.96R
$$

CAZ006-505>513-251700-
BAY AREA

CITY           SKY/WX    TMP DP  RH WIND       PRES   REMARKS
SANTA ROSA     PTSUNNY   54  50  86 S3        29.98R
SAN RAFAEL     N/A       57  MM  MM MISG
NAPA           CLOUDY    54  49  83 W8        29.98R
CONCORD        PTSUNNY   57  49  74 S16       29.98R
OAKLAND CITY   N/A       53  MM  MM MISG
OAKLAND        PTSUNNY   54  51  90 W12       30.02R
SAN FRAN CITY  N/A       51  MM 100 MISG
SAN FRAN ARPT  CLOUDY    54  50  86 W13       30.02R
LIVERMORE      CLOUDY    55  52  89 SW9       30.00R
HAYWARD        PTSUNNY   56  50  80 W12       30.02R
REDWOOD CITY   N/A       56  MM  81 MISG
MOFFETT ARPT   CLOUDY    59  50  72 SW10      30.02R
SAN JOSE ARPT  CLOUDY    61  49  64 S3        30.02R
$$
CAZ034-037-514>518-251700-
CENTRAL COAST

CITY           SKY/WX    TMP DP  RH WIND       PRES   REMARKS
WATSONVILLE    CLOUDY    55  52  89 W7        30.04R
SALINAS        CLOUDY    56  53  90 W9        30.04R
MONTEREY       CLOUDY    56  53  90 W8        30.05R
SAN LUIS OBISP CLOUDY    60  50  69 NW8       30.02S
SANTA MARIA    CLOUDY    55  52  89 W6        30.03R
HALF MOON BAY  PTSUNNY   52  52 100 NW9       30.04R FOG
$$
CAZ015-016-251700-
NORTHERN SACRAMENTO VALLEY

CITY           SKY/WX    TMP DP  RH WIND       PRES   REMARKS
REDDING        MOSUNNY   60  48  64 S12       29.94R
RED BLUFF      CLOUDY    58  48  69 S12       29.97R
OROVILLE       CLOUDY    61  49  64 S16       29.98R
$$
CAZ016>018-251700-
SOUTHERN SACRAMENTO VALLEY

CITY           SKY/WX    TMP DP  RH WIND       PRES   REMARKS
AUBURN         CLOUDY    52  46  82 SE13G22   29.98R
BEALE AFB      CLOUDY    59  47  65 SE17      29.96R
LINCOLN        CLOUDY    55  46  71 S12G18    29.97R
MARYSVILLE     CLOUDY    58  47  66 SE17      29.97R
SAC INTL ARPT  PTSUNNY   61  49  64 S15G23    29.97R
MATHER AIRPORT PTSUNNY   59  48  67 S15G21    29.97R
DOWNTOWN SAC   N/A       57  MM  MM MISG
SAC EXEC ARPT  CLOUDY    57  49  74 S9        29.98R
VACAVILLE      SUNNY     60  48  64 SW8       29.97R
TRAVIS AFB     MOSUNNY   59  49  68 W17       29.95R
$$
CAZ019>021-251700-
SAN JOAQUIN VALLEY

CITY           SKY/WX    TMP DP  RH WIND       PRES   REMARKS
STOCKTON       SUNNY     62  48  60 CALM      29.99R
MODESTO        SUNNY     60  48  64 NE3       29.98R
MERCED         SUNNY     63  48  58 SW9       29.98R
LEMOORE        SUNNY     63  46  54 VRB3      30.00R
FRESNO         MOSUNNY   61  46  57 NW10      30.00R
HANFORD        SUNNY     65  47  52 VRB7      30.01R
PORTERVILLE    SUNNY     62  46  55 CALM      30.01R
BAKERSFIELD    SUNNY     63  42  46 CALM      29.99R
$$
CAZ011-012-071-251700-
NORTHERN MOUNTAINS

CITY           SKY/WX    TMP DP  RH WIND       PRES   REMARKS
YREKA          PTSUNNY   57  42  57 N5        29.94R
MOUNT SHASTA   SUNNY     58  42  55 CALM      29.92S
ALTURAS        CLOUDY    50  38  63 W7        29.93R
$$
CAZ011-012-071-251700-
SIERRA NEVADA MTNS

CITY           SKY/WX    TMP DP  RH WIND       PRES   REMARKS
BLUE CANYON    SUNNY     50  38  63 S9G20     30.00R
TRUCKEE        SUNNY     48  28  46 CALM      29.98R
TAHOE VLY ARPT SUNNY     51  23  33 S13G20    29.97R
MAMMOTH LAKES  SUNNY     55  20  25 NW14      29.99S
$$



 

View Past Reports for Sacramento, CA.

Products Courtesy of NOAA-NWS
NWS Information Parsing Script by Ken True at Saratoga Weather - Script by SE Lincoln Weather.



Contact Us Contact Us Thumbnail | Mobile Mobile Phone Thumbnail
Private Policy | Terms & Conds | Consent Preferences | Cookie Policy
Never base any life decisions on weather information from this site or anywhere over the Internet.
Site is dedicated to our Lord & Savior Jesus Christ | Random Quotes of Jesus

Copyright © 2024 El Dorado Weather, Inc. | Site Designed By:  Webmaster Danny